[[{"header":{"parameterUnit":"m.s-1","parameterCategory":1,"la1":30.2992,"la2":30.254,"lo1":-89.0895,"lo2":-89.0443,"dy":0.0025,"dx":0.0025,"nx":19,"ny":19,"refTime":"2026-05-16T09:00:00:Z","depth":0,"parameterNumber":2,"parameterNumberName":"U-component_of_WINDS"},"data":[0,0,0,-1.5228,-1.5228,-1.5231,-1.5231,-1.5251,-1.5251,0,0,0,0,0,0,0,0,0,0,0,-1.5236,-1.5237,-1.5228,-1.5228,-1.5231,-1.5231,-1.5251,-1.5251,0,0,0,0,0,0,0,0,0,0,0,-1.5236,-1.5237,-1.5237,-1.5228,-1.5231,-1.5231,-1.5251,-1.5243,0,0,0,0,0,0,0,0,0,0,-1.5238,-1.5254,-1.5236,-1.5237,-1.5228,-1.5231,-1.5231,-1.5242,-1.5243,-1.5256,0,-1.527,0,-1.5261,-1.5253,-1.5254,0,0,0,-1.5222,-1.5253,-1.5246,-1.5237,-1.5228,-1.5231,-1.5228,-1.5243,-1.5244,-1.5258,-1.527,-1.527,-1.5261,-1.5254,-1.5254,-1.535,-1.5351,0,0,-1.5221,-1.5242,-1.5245,-1.5247,-1.5246,-1.5228,-1.5228,-1.5243,-1.5258,-1.527,-1.527,-1.5261,-1.5254,-1.5254,-1.5349,-1.535,0,0,0,-1.5225,-1.5242,-1.5234,-1.5246,-1.5246,-1.5228,-1.5228,-1.5257,-1.5252,-1.527,-1.5262,-1.5254,-1.5254,-1.5348,-1.535,-1.5407,0,0,0,-1.5225,-1.5244,-1.5234,-1.5247,-1.5246,-1.5251,-1.5242,-1.5251,-1.5253,-1.5262,-1.5254,-1.5255,-1.5347,-1.5349,-1.5404,-1.5431,0,0,0,-1.5233,-1.5245,-1.5249,-1.5248,-1.5249,-1.525,-1.5247,-1.5251,-1.5248,-1.5254,-1.5255,-1.5347,-1.5349,-1.5401,-1.5426,-1.5463,0,0,0,-1.5248,-1.53,-1.525,-1.5305,-1.525,-1.5286,-1.5246,-1.5272,-1.5284,-1.5254,-1.5348,-1.5349,-1.54,-1.5423,-1.546,-1.5498,-1.5516,0,0,-1.5325,-1.531,-1.5341,-1.5296,-1.5346,-1.5284,-1.5343,-1.5335,-1.5317,-1.534,-1.5342,-1.5405,-1.5426,-1.5463,-1.5607,-1.5621,0,0,0,-1.5372,-1.5395,-1.5403,-1.5416,-1.541,-1.5409,-1.5389,-1.5386,-1.5405,-1.5333,-1.5427,-1.5439,-1.546,-1.5477,-1.5489,-1.5506,-1.5358,-1.5358,-1.5358,-1.5511,-1.5485,-1.5535,-1.551,-1.5522,-1.5502,-1.551,-1.5503,-1.5473,-1.5496,-1.5503,-1.5593,-1.5615,-1.5623,-1.5641,-1.552,-1.5521,-1.5521,-1.5521,-1.5622,-1.5651,-1.561,-1.5644,-1.5617,-1.5645,-1.5628,-1.5606,-1.5629,-1.5586,-1.5603,-1.5558,-1.564,-1.5654,-1.5525,-1.5524,-1.5524,-1.5523,-1.5523,-1.5711,-1.572,-1.5715,-1.5731,-1.5746,-1.5719,-1.5743,-1.5717,-1.5694,-1.571,-1.5715,-1.5714,-1.5711,-1.5714,-1.5715,-1.5715,-1.5715,-1.5716,-1.5716,-1.5805,-1.5798,-1.5821,-1.5821,-1.5826,-1.5829,-1.581,-1.5814,-1.5813,-1.5792,-1.5792,-1.5761,-1.5652,-1.5626,-1.5721,-1.572,-1.5719,-1.5719,-1.5718,-1.5929,-1.5897,-1.5933,-1.5938,-1.5935,-1.5953,-1.592,-1.5931,-1.5931,-1.5944,-1.591,-1.5833,-1.5816,-1.5806,-1.5784,-1.5914,-1.5914,-1.5914,-1.5914,-1.6004,-1.5993,-1.6024,-1.6034,-1.6041,-1.6015,-1.6057,-1.6044,-1.6024,-1.6023,-1.6,-1.5969,-1.596,-1.5948,-1.5935,-1.5914,-1.6075,-1.6075,-1.6075,-1.6079,-1.6067,-1.6108,-1.6088,-1.6085,-1.6083,-1.6123,-1.6137,-1.6108,-1.6081,-1.6022,-1.6015,-1.5964,-1.5948,-1.592,-1.5901,-1.5862,0,0]},{"header":{"parameterUnit":"m.s-1","parameterCategory":1,"la1":30.2992,"la2":30.254,"lo1":-89.0895,"lo2":-89.0443,"dy":0.0025,"dx":0.0025,"nx":19,"ny":19,"refTime":"2026-05-16T09:00:00:Z","depth":0,"parameterNumber":3,"parameterNumberName":"V-component_of_WINDS"},"data":[0,0,0,3.6371,3.6372,3.6414,3.6414,3.6474,3.6474,0,0,0,0,0,0,0,0,0,0,0,3.6364,3.6365,3.6371,3.6372,3.6414,3.6414,3.6473,3.6474,0,0,0,0,0,0,0,0,0,0,0,3.6364,3.6365,3.6366,3.6373,3.6414,3.6414,3.6473,3.6439,0,0,0,0,0,0,0,0,0,0,3.6398,3.6397,3.6365,3.6366,3.6373,3.6414,3.6414,3.6438,3.6441,3.6458,0,3.6476,0,3.6476,3.6479,3.6479,0,0,0,3.6368,3.6394,3.64,3.6366,3.6373,3.6414,3.6394,3.644,3.6444,3.6463,3.6476,3.6478,3.6477,3.6479,3.6479,3.6593,3.6593,0,0,3.6366,3.6374,3.6397,3.6403,3.6399,3.6393,3.6395,3.6442,3.6456,3.6476,3.648,3.6478,3.648,3.648,3.6592,3.6593,0,0,0,3.6362,3.6373,3.6378,3.6401,3.6408,3.6394,3.6397,3.6454,3.6455,3.648,3.6479,3.648,3.6481,3.6591,3.6592,3.6636,0,0,0,3.636,3.6371,3.6377,3.6383,3.6408,3.6432,3.6408,3.6452,3.6457,3.6478,3.648,3.6481,3.659,3.6592,3.6633,3.6655,0,0,0,3.636,3.6371,3.6379,3.6383,3.6402,3.6431,3.6435,3.6453,3.6456,3.6479,3.6482,3.659,3.6591,3.6631,3.6651,3.6686,0,0,0,3.6361,3.6418,3.638,3.6442,3.6402,3.6459,3.6434,3.6477,3.6501,3.648,3.659,3.6592,3.663,3.6648,3.6683,3.6716,3.6732,0,0,3.6437,3.6427,3.6463,3.643,3.6497,3.6452,3.6525,3.6539,3.6532,3.6572,3.6575,3.6634,3.665,3.6685,3.6816,3.6829,0,0,0,3.649,3.6515,3.6531,3.6556,3.6569,3.6581,3.6583,3.6588,3.6622,3.6555,3.6657,3.6667,3.6687,3.6702,3.6712,3.6728,3.66,3.66,3.66,3.6608,3.6598,3.6656,3.6651,3.6675,3.6677,3.6695,3.6702,3.6684,3.6708,3.6719,3.68,3.6819,3.6826,3.6843,3.6738,3.6738,3.6738,3.6738,3.6717,3.6751,3.6727,3.6774,3.6763,3.6802,3.6806,3.6792,3.6826,3.6791,3.6808,3.6769,3.684,3.6854,3.6741,3.6741,3.6741,3.674,3.674,3.6792,3.6806,3.6812,3.6846,3.6873,3.6866,3.69,3.6888,3.6877,3.6895,3.6904,3.6903,3.6899,3.6901,3.6901,3.6901,3.6901,3.6902,3.6902,3.6866,3.6871,3.6902,3.6921,3.6934,3.6951,3.6954,3.6966,3.6977,3.6966,3.6966,3.6945,3.685,3.6825,3.6906,3.6905,3.6905,3.6904,3.6904,3.6976,3.695,3.6997,3.7011,3.7031,3.7057,3.7043,3.707,3.7079,3.7096,3.7072,3.7004,3.6992,3.6984,3.6963,3.7075,3.7075,3.7075,3.7075,3.7038,3.7032,3.7077,3.7099,3.712,3.7112,3.7164,3.7166,3.7164,3.7169,3.7152,3.7124,3.7116,3.7109,3.7098,3.7078,3.7217,3.7217,3.7217,3.7104,3.71,3.7146,3.7145,3.716,3.7173,3.722,3.7246,3.7239,3.7222,3.7172,3.7166,3.7121,3.7107,3.7088,3.7071,3.7034,0,0]}]]